Date_and_time,latitude,longitude,wind_speed,RelWindDirFrom,WindDirFrom,air_pressure,air_temperature,relative_humidity,Temp,platform_speed_wrt_ground,air_pressure_at_mean_sea_level,platform_orientation
2018-07-15 23:50,51.6393216666667,-96.80277,7.0,12.8,274,981.85,15.6,79,21.76,0.0,1007.70,104.9
2018-07-16 00:00,51.6393233333333,-96.8027566666667,9.2,14.0,269,981.73,15.7,75,21.74,0.0,1007.58,59.6
2018-07-16 00:10,51.6393266666667,-96.802775,11.1,21.8,270,981.61,15.9,68,21.73,0.0,1007.46,59.6
2018-07-16 00:20,51.6393333333333,-96.802765,12.8,20.2,263,981.84,16.1,66,21.74,0.0,1007.83,59.6
2018-07-16 00:30,51.6393133333333,-96.8027616666667,13.5,22.5,263,981.86,16.2,66,21.74,0.0,1007.93,59.6
2018-07-16 00:40,51.6393116666667,-96.8027466666667,12.1,19.5,266,981.64,16.2,65,21.74,0.0,1007.73,59.6
2018-07-16 00:50,51.6393133333333,-96.80276,11.4,17.9,265,981.63,16.1,64,21.75,0.0,1007.74,59.6
2018-07-16 01:00,51.6393116666667,-96.80275,11.9,17.5,258,981.71,16.2,65,21.74,0.0,1007.82,40.3
2018-07-16 01:10,51.6393116666667,-96.8027566666667,12.4,19.6,257,981.66,16.3,63,21.74,0.0,1007.79,40.3
2018-07-16 01:20,51.6393116666667,-96.8027533333333,11.2,17.3,261,981.63,16.4,62,21.69,0.0,1007.76,40.3
2018-07-16 01:30,51.6393166666667,-96.8027533333333,13.0,23.2,267,981.55,16.6,59,21.69,0.0,1007.68,40.3
2018-07-16 01:40,51.6393166666667,-96.8027566666667,13.6,25.6,269,981.53,17.1,56,21.68,0.0,1007.64,40.3
2018-07-16 01:50,51.6393233333333,-96.8027683333333,13.1,21.4,263,981.49,17.1,57,21.65,0.0,1007.59,40.3
2018-07-16 02:00,51.6393233333333,-96.802755,13.8,21.8,261,981.52,16.9,59,21.64,0.0,1007.61,270.0
2018-07-16 02:10,51.6393233333333,-96.80275,12.9,20.8,259,981.56,16.7,60,21.63,0.0,1007.66,270.0
2018-07-16 02:20,51.6393233333333,-96.802755,12.5,18.6,254,981.54,16.5,61,21.62,0.0,1007.65,270.0
2018-07-16 02:30,51.6393233333333,-96.8027566666667,11.5,16.1,260,981.59,16.4,61,21.61,0.0,1007.70,270.0
2018-07-16 02:40,51.6393166666667,-96.80276,11.8,19.6,261,981.65,16.4,60,21.60,0.0,1007.77,270.0
2018-07-16 02:50,51.6393183333333,-96.8027633333333,10.9,21.7,261,981.69,16.4,60,21.59,0.0,1007.80,270.0
2018-07-16 03:00,51.6393183333333,-96.8027633333333,14.5,22.0,263,981.66,16.5,58,21.60,0.0,1007.76,226.8
2018-07-16 03:10,51.6393283333333,-96.8027716666667,13.1,20.3,258,981.68,16.5,58,21.60,0.0,1007.78,226.8
2018-07-16 03:20,51.6393266666667,-96.80276,14.8,28.1,260,981.73,16.5,58,21.59,0.0,1007.82,226.8
2018-07-16 03:30,51.6393216666667,-96.802755,14.4,23.8,263,981.66,16.5,58,21.57,0.0,1007.72,226.8
2018-07-16 03:40,51.63932,-96.8027483333333,13.4,21.1,269,981.71,16.4,58,21.56,0.0,1007.78,226.8
2018-07-16 03:50,51.6393216666667,-96.8027466666667,14.0,21.9,268,981.73,16.3,59,21.54,0.0,1007.82,226.8
2018-07-16 04:00,51.6393166666667,-96.8027616666667,14.2,22.7,265,981.68,16.3,60,21.56,0.0,1007.77,270.0
2018-07-16 04:10,51.6393166666667,-96.8027616666667,16.9,28.0,270,981.76,16.1,61,21.52,0.0,1007.87,270.0
2018-07-16 04:20,51.6393216666667,-96.8027633333333,14.9,23.4,269,981.89,16.0,62,21.48,0.0,1008.02,270.0
2018-07-16 04:30,51.639325,-96.8027616666667,18.4,28.7,268,982.03,15.9,65,21.44,0.0,1008.17,270.0
2018-07-16 04:40,51.6393233333333,-96.8027616666667,16.4,25.4,267,982.07,15.3,70,21.40,0.0,1008.24,270.0
2018-07-16 04:50,51.6393233333333,-96.8027616666667,14.7,24.6,263,982.12,15.1,73,21.37,0.0,1008.29,270.0
2018-07-16 05:00,51.63932,-96.80276,15.2,23.6,261,982.12,15.4,70,21.34,0.0,1008.28,90.0
2018-07-16 05:10,51.63932,-96.8027583333333,16.0,25.1,262,982.19,15.6,69,21.33,0.0,1008.34,90.0
2018-07-16 05:20,51.6393233333333,-96.8027583333333,17.5,26.9,266,982.26,15.5,71,21.31,0.0,1008.41,90.0
2018-07-16 05:30,51.63933,-96.802755,16.7,26.7,262,982.23,15.2,73,21.28,0.0,1008.40,90.0
2018-07-16 05:40,51.63933,-96.8027566666667,15.8,22.1,262,982.25,15.1,74,21.26,0.0,1008.44,90.0
2018-07-16 05:50,51.6393233333333,-96.80276,17.5,25.0,263,982.26,15.0,74,21.25,0.0,1008.45,90.0
2018-07-16 06:00,51.6393316666667,-96.8027516666667,19.1,26.3,260,982.23,15.0,74,21.24,0.0,1008.43,360.0
2018-07-16 06:10,51.6393233333333,-96.80276,17.2,30.3,259,982.26,15.0,75,21.20,0.0,1008.46,360.0
2018-07-16 06:20,51.63932,-96.8027583333333,14.1,22.2,261,982.40,14.8,78,21.18,0.0,1008.62,360.0
2018-07-16 06:30,51.6393183333333,-96.8027583333333,15.5,21.9,261,982.49,14.8,78,21.16,0.0,1008.73,360.0
2018-07-16 06:40,51.6393183333333,-96.8027583333333,14.4,22.8,264,982.59,14.6,82,21.14,0.0,1008.86,360.0
2018-07-16 06:50,51.6393183333333,-96.80276,14.7,21.0,262,982.64,14.1,91,21.14,0.0,1008.92,360.0
2018-07-16 07:00,51.6393333333333,-96.8027716666667,13.1,19.9,262,982.65,13.9,95,21.12,0.0,1008.93,360.0
2018-07-16 07:10,51.6393233333333,-96.80277,13.4,21.2,261,982.79,13.9,97,21.12,0.0,1009.08,360.0
2018-07-16 07:20,51.6393266666667,-96.8027683333333,10.5,17.0,266,982.88,13.7,99,21.14,0.0,1009.19,360.0
2018-07-16 07:30,51.6393266666667,-96.8027666666667,13.9,21.8,264,982.89,13.8,98,21.15,0.0,1009.21,360.0
2018-07-16 07:40,51.639325,-96.80277,14.0,23.1,265,982.97,13.8,99,21.14,0.0,1009.30,360.0
2018-07-16 07:50,51.6393283333333,-96.8027683333333,12.3,19.3,268,983.13,13.6,99,21.17,0.0,1009.47,360.0
2018-07-16 08:00,51.6393183333333,-96.8027683333333,11.3,19.4,270,983.21,13.6,99,21.16,0.0,1009.55,360.0
2018-07-16 08:10,51.6393166666667,-96.8027616666667,10.3,15.2,268,983.18,13.6,99,21.15,0.0,1009.53,360.0
2018-07-16 08:20,51.6393166666667,-96.8027616666667,8.8,14.4,268,983.25,13.8,99,21.15,0.0,1009.59,360.0
2018-07-16 08:30,51.639315,-96.8027633333333,9.4,14.4,271,983.26,13.9,99,21.13,0.0,1009.60,360.0
2018-07-16 08:40,51.6393066666667,-96.8027516666667,9.7,16.7,268,983.31,13.9,99,21.16,0.0,1009.68,360.0
2018-07-16 08:50,51.6393133333333,-96.8027666666667,9.7,16.5,272,983.39,13.9,99,21.14,0.0,1009.77,360.0
2018-07-16 09:00,51.639315,-96.8027616666667,8.1,19.5,282,983.50,13.9,99,21.10,0.0,1009.88,360.0
2018-07-16 09:10,51.63932,-96.8027833333333,5.1,12.6,319,983.75,13.9,99,21.08,0.0,1010.15,360.0
2018-07-16 09:20,51.639315,-96.8027633333333,5.1,12.6,333,983.84,13.7,99,21.07,0.0,1010.24,360.0
2018-07-16 09:30,51.6393166666667,-96.8027633333333,5.5,16.5,329,984.01,13.6,99,21.05,0.0,1010.42,360.0
2018-07-16 09:40,51.6393283333333,-96.8027766666667,4.2,11.3,336,984.05,13.3,99,21.05,0.0,1010.49,360.0
2018-07-16 09:50,51.639315,-96.802765,4.5,11.7,320,984.22,13.3,99,21.06,0.0,1010.66,360.0
2018-07-16 10:00,51.6393383333333,-96.802765,4.6,11.3,340,984.30,13.5,98,21.03,0.0,1010.73,46.8
2018-07-16 10:10,51.63932,-96.8027583333333,4.4,14.1,349,984.34,13.5,98,21.05,0.0,1010.77,46.8
2018-07-16 10:20,51.6393183333333,-96.8027583333333,5.0,13.3,328,984.65,13.1,100,21.06,0.0,1011.10,46.8
2018-07-16 10:30,51.6393166666667,-96.80276,5.3,10.9,346,984.74,13.0,100,21.04,0.0,1011.20,46.8
2018-07-16 10:40,51.6393083333333,-96.80278,5.6,11.3,325,984.92,12.9,100,21.05,0.0,1011.39,46.8
2018-07-16 10:50,51.6393166666667,-96.8027566666667,5.4,10.8,316,985.06,12.8,100,21.04,0.0,1011.53,46.8
2018-07-16 11:00,51.6393266666667,-96.80276,5.0,10.4,316,985.15,13.2,100,21.04,0.0,1011.61,7.0
2018-07-16 11:10,51.6393266666667,-96.8027666666667,5.7,16.3,330,985.23,13.6,100,20.99,0.0,1011.68,7.0
2018-07-16 11:20,51.64478,-96.7875116666667,10.6,22.3,7,985.23,13.9,100,20.94,3.9,1011.67,7.0
2018-07-16 11:30,51.6686466666667,-96.763865,25.4,29.6,0,984.14,14.3,100,20.90,10.1,1010.55,7.0
2018-07-16 11:40,51.6927733333333,-96.7846016666667,28.2,32.3,349,984.69,14.1,100,21.04,9.8,1011.12,7.0
2018-07-16 11:50,51.715835,-96.8061833333333,29.1,32.2,346,984.65,14.0,100,20.97,9.6,1011.08,7.0
2018-07-16 12:00,51.7379033333333,-96.8269316666667,30.9,36.4,339,984.26,14.4,100,20.88,9.2,1010.66,351.4
2018-07-16 12:10,51.7566516666667,-96.852715,33.6,39.9,325,983.88,14.6,98,20.79,8.9,1010.28,351.4
2018-07-16 12:20,51.7676183333333,-96.8735166666667,30.0,39.2,328,984.81,15.1,94,20.71,6.1,1011.22,351.4
2018-07-16 12:30,51.776935,-96.8852416666667,19.1,36.9,327,985.92,14.4,99,20.72,4.2,1012.39,351.4
2018-07-16 12:40,51.776675,-96.885675,10.9,19.1,344,986.70,14.2,99,20.71,0.1,1013.20,351.4
2018-07-16 12:50,51.7767166666667,-96.8852816666667,12.5,21.1,331,986.83,14.0,99,20.71,0.1,1013.33,351.4
2018-07-16 13:00,51.7767233333333,-96.8852566666667,13.9,22.8,332,986.92,13.9,98,20.70,0.0,1013.40,339.6
2018-07-16 13:10,51.776665,-96.885595,12.0,19.8,3,987.21,13.6,100,20.69,0.1,1013.70,339.6
2018-07-16 13:20,51.77666,-96.8854983333333,12.1,18.1,357,987.42,13.2,100,20.68,0.0,1013.92,339.6
2018-07-16 13:30,51.77668,-96.88552,11.9,18.3,352,987.56,13.1,100,20.66,0.0,1014.08,339.6
2018-07-16 13:40,51.7766683333333,-96.8856133333333,9.8,15.9,6,987.72,13.2,100,20.64,0.0,1014.25,339.6
2018-07-16 13:50,51.7766616666667,-96.8855683333333,8.9,13.7,357,987.94,13.1,100,20.65,0.0,1014.45,339.6
2018-07-16 14:00,51.7766766666667,-96.8855583333333,9.7,16.8,356,988.10,13.2,100,20.66,0.0,1014.61,339.5
2018-07-16 14:10,51.77667,-96.885555,9.3,14.5,346,988.24,13.3,100,20.65,0.0,1014.73,339.5
2018-07-16 14:20,51.7766783333333,-96.8854533333333,8.1,14.7,337,988.44,13.3,100,20.62,0.0,1014.96,339.5
2018-07-16 14:30,51.776655,-96.8854416666667,11.1,19.0,334,988.47,13.5,100,20.61,0.0,1014.99,339.5
2018-07-16 14:40,51.776665,-96.8856866666667,10.5,17.6,347,988.55,13.5,100,20.60,0.1,1015.09,339.5
2018-07-16 14:50,51.77671,-96.885355,9.8,17.3,330,988.71,13.3,100,20.59,0.1,1015.25,339.5
2018-07-16 15:00,51.776675,-96.885425,10.7,18.5,330,988.79,13.6,98,20.60,0.0,1015.34,317.0
2018-07-16 15:10,51.776725,-96.885265,12.1,19.2,322,988.90,13.6,95,20.59,0.0,1015.47,317.0
2018-07-16 15:20,51.7767233333333,-96.885245,12.3,20.0,322,989.10,13.8,93,20.60,0.0,1015.67,317.0
2018-07-16 15:30,51.776705,-96.8853216666667,12.1,18.8,318,989.24,13.7,91,20.61,0.0,1015.82,317.0
2018-07-16 15:40,51.7767783333333,-96.8851766666667,12.8,22.4,312,989.37,13.7,88,20.62,0.0,1015.96,317.0
2018-07-16 15:50,51.776755,-96.88527,10.3,17.4,320,989.67,13.7,87,20.62,0.0,1016.27,317.0
2018-07-16 16:00,51.7767483333333,-96.8852466666667,10.3,15.1,323,989.79,13.7,86,20.61,0.0,1016.38,3.4
2018-07-16 16:10,51.7767066666667,-96.88526,12.0,20.6,318,989.80,13.7,88,20.60,0.0,1016.39,3.4
2018-07-16 16:20,51.7767266666667,-96.8853216666667,10.0,16.6,323,990.02,13.6,91,20.60,0.0,1016.61,3.4
2018-07-16 16:30,51.776735,-96.8852933333333,11.9,19.2,322,989.99,13.6,87,20.60,0.0,1016.58,3.4
2018-07-16 16:40,51.7767166666667,-96.88533,10.6,17.9,322,990.12,13.8,85,20.60,0.0,1016.71,3.4
2018-07-16 16:50,51.7767116666667,-96.8853366666667,11.1,18.2,320,990.16,13.9,84,20.59,0.0,1016.73,3.4
2018-07-16 17:00,51.7767466666667,-96.885235,10.1,16.9,322,990.27,14.0,81,20.58,0.0,1016.84,71.6
2018-07-16 17:10,51.776745,-96.8852583333333,11.5,20.1,326,990.30,14.2,80,20.58,0.0,1016.86,71.6
2018-07-16 17:20,51.7767266666667,-96.8852633333333,10.0,18.6,322,990.49,14.0,81,20.57,0.0,1017.06,71.6
2018-07-16 17:30,51.7771133333333,-96.8817933333333,9.1,16.8,318,990.67,14.0,81,20.56,0.8,1017.25,71.6
2018-07-16 17:40,51.7986633333333,-96.892315,25.8,34.1,329,989.26,14.1,81,20.53,8.1,1015.80,71.6
2018-07-16 17:50,51.8196166666667,-96.916135,26.8,33.2,328,989.39,14.1,84,20.51,9.2,1015.92,71.6
2018-07-16 18:00,51.84504,-96.9419333333333,29.4,33.7,326,988.93,13.9,78,20.55,10.8,1015.46,332.9
2018-07-16 18:10,51.8615316666667,-96.9603683333333,25.8,32.7,321,989.47,14.0,77,20.51,7.2,1016.03,332.9
2018-07-16 18:20,51.8654666666667,-96.96647,19.9,24.4,316,990.42,13.9,79,20.51,2.0,1017.00,332.9
2018-07-16 18:30,51.8720766666667,-96.9670933333333,19.2,24.0,320,990.69,13.8,78,20.51,2.4,1017.27,332.9
2018-07-16 18:40,51.8985783333333,-96.9805233333333,27.3,31.9,325,989.67,13.8,79,20.49,10.0,1016.22,332.9
2018-07-16 18:50,51.92738,-96.9958883333333,28.1,31.7,321,989.78,13.9,77,20.44,10.9,1016.33,332.9
2018-07-16 19:00,51.95602,-97.01192,27.9,31.6,322,989.88,14.0,73,20.37,10.9,1016.41,336.5
2018-07-16 19:10,51.98393,-97.0312316666667,26.9,30.9,321,990.02,13.9,76,20.31,10.9,1016.58,336.5
2018-07-16 19:20,52.0117483333333,-97.0508066666667,27.2,32.6,322,990.08,13.7,77,20.18,10.9,1016.64,336.5
2018-07-16 19:30,52.0394716666667,-97.0707966666667,27.7,31.9,328,990.02,13.2,83,20.25,10.9,1016.60,336.5
2018-07-16 19:40,52.06689,-97.0919283333333,27.4,31.0,311,990.32,13.4,82,20.26,10.9,1016.89,336.5
2018-07-16 19:50,52.09464,-97.111835,28.4,31.8,319,990.21,13.1,85,20.01,10.9,1016.81,336.5
2018-07-16 20:00,52.12214,-97.132555,26.0,31.1,316,990.64,12.9,86,19.87,10.9,1017.26,336.3
2018-07-16 20:10,52.15005,-97.1523816666667,25.3,31.6,317,990.76,12.4,96,19.97,11.0,1017.40,336.3
2018-07-16 20:20,52.1778583333333,-97.1724433333333,25.1,29.0,316,990.79,12.5,94,19.82,10.9,1017.43,336.3
2018-07-16 20:30,52.2067433333333,-97.1868933333333,23.0,26.2,313,991.07,13.1,86,19.71,10.9,1017.70,336.3
2018-07-16 20:40,52.237275,-97.1885466666667,23.2,26.1,321,991.05,13.1,85,19.59,11.0,1017.67,336.3
2018-07-16 20:50,52.2668516666667,-97.19199,23.7,28.2,330,990.95,13.4,80,19.72,10.7,1017.55,336.3
2018-07-16 21:00,52.26811,-97.1902633333333,16.1,22.0,327,991.86,12.8,88,19.88,0.6,1018.52,340.3
2018-07-16 21:10,52.2681233333333,-97.190265,12.1,15.2,316,992.00,13.2,80,19.92,0.0,1018.65,340.3
2018-07-16 21:20,52.2681783333333,-97.1901533333333,12.4,15.5,319,992.07,13.7,77,19.95,0.0,1018.72,340.3
2018-07-16 21:30,52.26819,-97.1901183333333,13.1,16.9,313,992.10,13.7,78,19.95,0.0,1018.74,340.3
2018-07-16 21:40,52.2838016666667,-97.1939983333333,18.6,26.3,323,991.62,13.7,78,19.94,5.7,1018.27,340.3
2018-07-16 21:50,52.3142683333333,-97.1983183333333,22.8,29.2,333,991.29,13.4,80,19.97,11.0,1017.95,340.3
2018-07-16 22:00,52.3426933333333,-97.2150433333333,22.3,26.1,323,991.24,13.3,82,20.11,10.9,1017.93,342.2
2018-07-16 22:10,52.3699966666667,-97.23926,22.8,25.7,317,991.19,13.7,79,19.90,11.2,1017.85,342.2
2018-07-16 22:20,52.393265,-97.2729083333333,23.4,25.7,314,991.01,13.9,77,19.76,11.2,1017.64,342.2
2018-07-16 22:30,52.4147316666667,-97.3083266666667,23.2,27.4,315,991.11,14.0,75,19.61,11.0,1017.73,342.2
2018-07-16 22:40,52.4347683333333,-97.338545,22.0,26.0,316,991.29,14.2,73,19.58,9.8,1017.89,342.2
2018-07-16 22:50,52.434825,-97.3387166666667,12.3,14.6,321,992.22,14.3,72,19.46,0.0,1018.86,342.2
2018-07-16 23:00,52.4349166666667,-97.338565,11.4,13.9,318,992.17,14.3,73,19.43,0.0,1018.80,338.1
2018-07-16 23:10,52.4348416666667,-97.3387383333333,10.5,13.4,327,992.25,14.3,72,19.42,0.0,1018.86,338.1
2018-07-16 23:20,52.4393566666667,-97.3406883333333,11.1,20.7,325,992.19,14.5,71,19.41,1.7,1018.79,338.1
2018-07-16 23:30,52.4670533333333,-97.3621416666667,21.2,24.1,329,991.33,14.5,72,19.34,11.0,1017.91,338.1
